Regional Weather Roundup
Issued by NWS San Diego, CA

Home | Current Version | Previous Version | Text Only | Print | Product List | Glossary On
Versions: 1 2 3 4 5 6 7 8 9 10 11 12 13 14 15 16 17 18 19 20 21 22 23 24 25 26 27
000
ASUS46 KSGX 051611
RWRSGX

SAN DIEGO HOURLY WEATHER ROUNDUP
NATIONAL WEATHER SERVICE SAN DIEGO CA
800 AM PST MON DEC 05 2016

NOTE: "FAIR" INDICATES FEW OR NO CLOUDS BELOW 12,000 FEET WITH NO
SIGNIFICANT WEATHER AND/OR OBSTRUCTIONS TO VISIBILITY.

CAZ042-043-060-061-PZZ750-775-051700-

GREATER SAN DIEGO AREA

CITY           SKY/WX    TMP DP  RH WIND       PRES   REMARKS
SAN DIEGO AP   PTSUNNY   56  44  64 E3        29.99R
NATIONAL CITY    N/A     48  45  88 E1        29.98R
CHULA VISTA      N/A     49  41  74 E2        29.90R
IMPERIAL BEACH PTSUNNY   55  34  45 E8        29.98R
BROWN FIELD    MOSUNNY   52  37  56 E5        29.97R
MIRAMAR MCAS   PTSUNNY   55  45  68 E5        29.97R
MONTGOMERY FLD MOSUNNY   51  44  77 E5        29.97R

$$

NORTH SAN DIEGO COUNTY

CITY           SKY/WX    TMP DP  RH WIND       PRES   REMARKS
CAMP PENDLETON PTSUNNY   42  33  70 NE3       29.99R
OCEANSIDE AP   PTSUNNY   43  35  73 NE3       29.98R
OCEANSIDE HBR    N/A     48  37  65 NE5       30.00R
VISTA            N/A     45  39  80 CALM      29.97R
CARLSBAD       CLOUDY    53  44  71 NE3       29.97R
DEL MAR          N/A     52  51  97 CALM      30.00R
LA JOLLA SCRIP   N/A     56  52  86 E3        29.97R
FALLBROOK        N/A     48  34  57 CALM      29.97R
ESCONDIDO        N/A     46  37  70 CALM      30.01R
SAN MARCOS       N/A    N/A N/A N/A CALM      30.01R
POWAY            N/A     40  36  84 CALM      30.01R

$$

EAST SAN DIEGO COUNTY

CITY           SKY/WX    TMP DP  RH WIND       PRES   REMARKS
RAMONA         SUNNY     39  33  79 CALM      29.97R
SANTEE LAKES     N/A     40  37  86 CALM      29.98R
LA MESA          N/A     50  39  65 CALM      29.91R
JAMUL            N/A     47  33  58 CALM      29.98R
DESCANSO N       N/A     44  25  47 NE3       29.93R
CAMPO            N/A     41  26  55 NE3       29.94S

$$

ORANGE COUNTY AND THE LOS ANGELES BASIN

CITY           SKY/WX    TMP DP  RH WIND       PRES   REMARKS
JOHN WAYNE AP  PTSUNNY   54  43  66 CALM      29.98R
LAGUNA BEACH     N/A     48  47  96 NW3       29.93S
LAKE FOREST FR   N/A     51  46  82 CALM      29.87R
HUNTINGTON BCH   N/A     50  49  97 CALM      30.00R
LOS ALAMITOS   PTSUNNY   51  44  76 CALM      29.98R
FULLERTON      PTSUNNY   53  32  44 CALM      29.97R
LONG BEACH     PTSUNNY   53  44  71 CALM      29.98R
L.A. AP        FOG       53  53 100 CALM      29.98R VSB 3/4
L.A. DOWNTOWN  SUNNY     51  38  60 CALM      29.97R

$$

THE INLAND EMPIRE

CITY           SKY/WX    TMP DP  RH WIND       PRES   REMARKS
CORONA         SUNNY     41  40  96 CALM      29.99R
CHINO          MOSUNNY   48  40  73 CALM      29.99R
ONTARIO        PTSUNNY   49  36  61 CALM      29.97R
SAN BERNARDINO FAIR      47  29  50 CALM      29.97S
RIVERSIDE AP   SUNNY     49  35  58 NE3       29.98R
MORENO VALLEY    N/A     53  35  51 CALM      28.09R
MARCH ARB      SUNNY     44  34  68 CALM      29.97R
HORSETHIEF CYN   N/A     48  25  40 CALM      29.99R
PERRIS           N/A     43  34  72 SE1       30.01S
HEMET EAST       N/A     50  17  26 CALM      30.01R
FRENCH VALLEY  NOT AVBL
TEMECULA         N/A     40  36  84 CALM      30.04R

$$

SAN BERNARDINO AND RIVERSIDE COUNTY MOUNTAINS

CITY           SKY/WX    TMP DP  RH WIND       PRES   REMARKS
BIG BEAR AP    MOSUNNY   43  18  36 SW9       30.03S
ANGELUS OAKS     N/A     45  27  49 CALM      29.88S
PINE COVE        N/A     45  19  36 N2        29.89R

$$

SOUTHERN DESERT INCLUDING THE COACHELLA VALLEY

CITY           SKY/WX    TMP DP  RH WIND       PRES   REMARKS
PALM SPRINGS   MOSUNNY   51  30  44 NW5       29.92R
PALM DESERT      N/A     46  37  71 CALM      26.49S
THERMAL        NOT AVBL
IMPERIAL AP    PTSUNNY   47  25  42 CALM      29.90R
EL CENTRO NAS  MOSUNNY   45  21  38 S3        29.92R
YUMA AZ        MOSUNNY   51  21  30 NE5       29.91
MEXICALI       MOSUNNY   48  19  32 E6        29.90R

$$

UPPER DESERT

CITY           SKY/WX    TMP DP  RH WIND       PRES   REMARKS
VICTORVILLE AP   N/A     48  21  34 W6        29.97R
HESPERIA         N/A     52  19  27 N3        30.07R
PALMDALE       MOSUNNY   55  22  27 W16       29.97S
LANCASTER      MOSUNNY   53  25  33 W22       29.97S
EDWARDS AFB    PTSUNNY   53  20  27 SE8       29.95R
DAGGETT        PTSUNNY   50  22  33 NW8       29.95R
29 PALMS N     MOSUNNY   42  11  28 CALM      30.01R
NEEDLES        SUNNY     52  18  26 CALM      29.93R

$$

REGIONAL REPORTS

CITY           SKY/WX    TMP DP  RH WIND       PRES   REMARKS
SANTA BARBARA  MOSUNNY   45  44  97 CALM      29.95S
SANDBERG       MOSUNNY   48  24  39 NW30      30.03S
LAS VEGAS NV   MOSUNNY   45  16  31 SW3       29.94R
PHOENIX AZ     PTSUNNY   50  25  37 E9        29.94R
TIJUANA        MOSUNNY   52  32  46 CALM      30.00R
ENSENADA NW      N/A     55  32  41 NE6       29.98R

$$

OFFSHORE ISLANDS

CITY           SKY/WX    TMP DP  RH WIND       PRES   REMARKS
CATALINA ARPT  SUNNY     54  48  80 CALM      29.98R
SAN CLEMENTE I PTSUNNY   56  54  93 S5        29.99R
SAN NICOLAS IS MOSUNNY   55  53  93 NW22      29.96S

$$

MARINE AND OFFSHORE BUOY REPORTS

STATION/POSITION SKY/WX   TEMP    WIND        PRES    SWELL
                          AIR SEA DIR/SP/G            HT/PER/DIR
                          (F)     (DEG/KT/KT) (MB)    (FT/S/D)
TANNER BANKS               58 62  320/ 21/ 25 1015.0R  10/320/15
S CLEMENTE BASIN           59 62  260/  2/  4 1014.6R   8/270/15
SAN NICOLAS IS.               59                N/A     7/290/13
SO. S. ROSA ISLA           57 59  300/ 25/ 31 1013.8F  10/290/14
W. S. BARBARA CH           57 57  320/ 23/ 29 1014.7R  10/300/15
M. S. BARBARA CH                   50/  4/  6 1014.5S
S. MONICA BASIN            59 61   20/ 12/ 14 1014.4R   3/270/ 8
S PEDRO CHANNEL               62                N/A     2/270/15
CMP PENDLETON NS              60                N/A     2/230/14
OCEANSIDE OFFSHR              62                N/A     2/230/14
TORREY PINES OTR              62                N/A     3/270/17
POINT LOMA SOUTH              61                N/A     3/280/17

$$





USA.gov is the U.S. government's official web portal to all federal, state and local government web resources and services.